[[{"header":{"parameterUnit":"m.s-1","parameterCategory":1,"la1":30.2991,"la2":30.254,"lo1":-89.0895,"lo2":-89.0444,"dy":0.0017,"dx":0.0017,"nx":28,"ny":28,"refTime":"2024-03-19T03:00:00:Z","depth":0,"parameterNumber":2,"parameterNumberName":"U-component_of_WINDS"},"data":[0,0,0,0,0,0,0,0,0,0,0,0,0,0,0,0,0,0,0,0,0,0,0,0,0,0,0,0,0,0,0,0,0,0,0,0,0,0,0,0,0,0,0,0,0,0,0,0,0,0,0,0,0,0,0,0,0,0,-0.6954,-0.6955,0,-0.706,-0.7061,-0.7062,-0.7052,-0.705,-0.7048,-0.7047,-0.7161,-0.7166,-0.7171,0,0,0,0,0,0,0,0,0,0,0,0,0,-0.6747,-0.6751,-0.6954,-0.6955,-0.6957,-0.706,-0.7061,-0.7063,-0.7052,-0.705,-0.7048,-0.7046,-0.716,-0.7165,-0.7171,0,0,0,0,0,0,0,0,0,0,0,0,0,-0.6844,-0.6752,-0.6954,-0.6963,-0.6965,-0.7059,-0.7061,-0.7063,-0.7052,-0.705,-0.7047,-0.7045,-0.7158,-0.7165,-0.7172,-0.7265,0,0,-0.7193,-0.7196,0,0,0,0,0,0,0,0,-0.6838,-0.6851,-0.6961,-0.6963,-0.6965,-0.704,-0.703,-0.7131,-0.7053,-0.702,-0.7047,-0.7044,-0.7123,-0.7133,-0.7159,-0.727,-0.7275,-0.7193,-0.7198,-0.7201,-0.7203,0,0,0,0,0,0,0,-0.6831,-0.6847,-0.6996,-0.6962,-0.6965,-0.6964,-0.6975,-0.7049,-0.7085,-0.7022,-0.7022,-0.7034,-0.7124,-0.7152,-0.7161,-0.7277,-0.7193,-0.7199,-0.7204,-0.7206,-0.747,-0.7473,0,0,0,0,0,0,-0.6822,-0.6841,-0.6993,-0.6999,-0.6894,-0.697,-0.6982,-0.7019,-0.7084,-0.7091,-0.7036,-0.7033,-0.7141,-0.7153,-0.7165,-0.7279,-0.7201,-0.7207,-0.7211,-0.7467,-0.7471,-0.7474,0,0,0,0,0,0,-0.6817,-0.6835,-0.6988,-0.692,-0.6939,-0.6976,-0.7017,-0.7022,-0.705,-0.7094,-0.7101,-0.7058,-0.714,-0.7156,-0.724,-0.7283,-0.721,-0.7217,-0.7464,-0.7469,-0.7472,-0.7508,0,0,0,0,0,0,-0.6811,-0.6834,-0.6868,-0.6921,-0.6943,-0.706,-0.702,-0.7026,-0.7061,-0.7058,-0.7116,-0.7123,-0.7139,-0.7229,-0.7247,-0.7291,-0.7222,-0.746,-0.7466,-0.7471,-0.7503,-0.7513,-0.7521,0,0,0,0,0,-0.6804,-0.6875,-0.687,-0.6889,-0.6987,-0.7062,-0.7075,-0.709,-0.7064,-0.7101,-0.7129,-0.7122,-0.7275,-0.7238,-0.7257,-0.7305,-0.7458,-0.7465,-0.7471,-0.7499,-0.7511,-0.7521,0,0,0,0,0,0,-0.683,-0.6883,-0.6877,-0.6968,-0.701,-0.706,-0.7107,-0.7102,-0.7155,-0.7151,-0.7168,-0.7182,-0.7267,-0.7294,-0.7252,-0.7399,-0.7363,-0.7374,-0.7378,-0.739,-0.7399,-0.7392,-0.7228,0,0,0,0,0,-0.6845,-0.6901,-0.6944,-0.702,-0.7041,-0.707,-0.7103,-0.7111,-0.7157,-0.7175,-0.721,-0.7256,-0.7315,-0.7353,-0.741,-0.7506,-0.7519,-0.7548,-0.7557,-0.7564,-0.7574,-0.7628,-0.7642,-0.7495,-0.7495,-0.7495,0,0,-0.688,-0.6915,-0.695,-0.7026,-0.706,-0.7118,-0.7086,-0.7149,-0.7193,-0.7186,-0.7267,-0.7294,-0.7347,-0.7437,-0.7479,-0.7463,-0.7617,-0.7572,-0.7578,-0.7584,-0.7636,-0.765,-0.7662,-0.75,-0.7499,-0.7498,0,0,-0.6972,-0.7004,-0.707,-0.7104,-0.7155,-0.7173,-0.7189,-0.724,-0.7257,-0.7338,-0.7334,-0.7387,-0.7487,-0.7525,-0.7558,-0.7662,-0.7658,-0.768,-0.7729,-0.7781,-0.7792,-0.7803,-0.7842,-0.7855,-0.7689,-0.7689,-0.7689,0,-0.7009,-0.7095,-0.7106,-0.7169,-0.7204,-0.7196,-0.7265,-0.7298,-0.7366,-0.7391,-0.737,-0.7495,-0.7531,-0.763,-0.7656,-0.7681,-0.7702,-0.7675,-0.7789,-0.78,-0.781,-0.7847,-0.7862,-0.7691,-0.7691,-0.7691,-0.7691,0,-0.7139,-0.7198,-0.7246,-0.7309,-0.7349,-0.7414,-0.7436,-0.7475,-0.7478,-0.7499,-0.7583,-0.7624,-0.7689,-0.7712,-0.7717,-0.7813,-0.7801,-0.7785,-0.775,-0.7826,-0.7862,-0.7876,-0.7695,-0.7694,-0.7693,-0.7693,0,0,-0.7254,-0.732,-0.7337,-0.7366,-0.742,-0.7468,-0.7533,-0.7594,-0.7628,-0.7674,-0.7731,-0.7814,-0.7799,-0.7836,-0.7845,-0.789,-0.7972,-0.7868,-0.787,-0.7888,-0.8082,-0.8096,-0.8112,-0.7968,-0.7971,-0.7973,-0.8078,0,-0.7353,-0.7468,-0.7478,-0.7581,-0.7637,-0.763,-0.7688,-0.7728,-0.7749,-0.7801,-0.7824,-0.7884,-0.7858,-0.788,-0.7925,-0.7953,-0.8012,-0.7945,-0.8024,-0.8026,-0.8013,-0.813,-0.8146,-0.8243,-0.8092,-0.8094,-0.8096,0,-0.7486,-0.7533,-0.7642,-0.7688,-0.7711,-0.7763,-0.7819,-0.7868,-0.7914,-0.7926,-0.7965,-0.7968,-0.8037,-0.7996,-0.8093,-0.8047,-0.8079,-0.8098,-0.8102,-0.8113,-0.8068,-0.8146,-0.8274,-0.829,-0.8118,-0.8116,-0.8114,0,-0.7561,-0.7652,-0.7729,-0.7753,-0.7808,-0.7845,-0.787,-0.7913,-0.7948,-0.7998,-0.8022,-0.8079,-0.8112,-0.8157,-0.8175,-0.8144,-0.8271,-0.8232,-0.8285,-0.8285,-0.8315,-0.8313,-0.8452,-0.8331,-0.8331,-0.8331,-0.833,0,-0.7673,-0.774,-0.7763,-0.7811,-0.7886,-0.7897,-0.7972,-0.7995,-0.8033,-0.8087,-0.8084,-0.8134,-0.8154,-0.8207,-0.8222,-0.83,-0.8314,-0.8328,-0.8331,-0.833,-0.8328,-0.8353,-0.8348,-0.8335,-0.8334,-0.8333,-0.8332,0,-0.7771,-0.7789,-0.7873,-0.7917,-0.793,-0.7983,-0.8022,-0.8069,-0.8087,-0.8154,-0.8171,-0.8201,-0.8264,-0.8285,-0.8363,-0.8372,-0.8464,-0.8461,-0.8448,-0.845,-0.8502,-0.8498,-0.8665,-0.8688,-0.8549,-0.855,-0.8551,0,-0.7843,-0.7894,-0.7943,-0.7977,-0.8003,-0.8058,-0.8094,-0.8107,-0.8144,-0.8199,-0.824,-0.8302,-0.8352,-0.8453,-0.8484,-0.8542,-0.8542,-0.8596,-0.8551,-0.8548,-0.8546,-0.8543,-0.8549,-0.8606,-0.8607,-0.8608,-0.8609,0,-0.7969,-0.7974,-0.8025,-0.8079,-0.8121,-0.8165,-0.8207,-0.8235,-0.8254,-0.8297,-0.836,-0.8399,-0.8476,-0.8538,-0.8598,-0.8626,-0.8622,-0.8622,-0.8638,-0.8639,-0.863,-0.8637,-0.8474,-0.862,-0.8619,-0.8618,-0.8617,-0.8617,-0.8058,-0.8103,-0.8144,-0.82,-0.8232,-0.8272,-0.8317,-0.834,-0.8393,-0.8455,-0.8459,-0.8528,-0.8573,-0.8652,-0.8682,-0.8737,-0.8722,-0.8744,-0.8751,-0.8757,-0.8762,-0.8618,-0.8748,-0.8747,-0.8747,-0.8747,-0.8747,0,-0.8185,-0.821,-0.8262,-0.832,-0.8364,-0.8353,-0.8398,-0.8437,-0.8497,-0.8537,-0.8586,-0.8659,-0.8719,-0.8752,-0.8812,-0.885,-0.885,-0.8866,-0.8865,-0.8871,-0.877,-0.8752,-0.8865,-0.8865,-0.8865,-0.8865,-0.8865,-0.8865,-0.8257,-0.8333,-0.8343,-0.8435,-0.8461,-0.8526,-0.8554,-0.859,-0.8622,-0.8703,-0.8752,-0.8772,-0.881,-0.8873,-0.8927,-0.8936,-0.8959,-0.8977,-0.8984,-0.889,-0.8878,-0.8867,-0.885,-0.8981,-0.8981,-0.9081,-0.9082,-0.9083]},{"header":{"parameterUnit":"m.s-1","parameterCategory":1,"la1":30.2991,"la2":30.254,"lo1":-89.0895,"lo2":-89.0444,"dy":0.0017,"dx":0.0017,"nx":28,"ny":28,"refTime":"2024-03-19T03:00:00:Z","depth":0,"parameterNumber":3,"parameterNumberName":"V-component_of_WINDS"},"data":[0,0,0,0,0,0,0,0,0,0,0,0,0,0,0,0,0,0,0,0,0,0,0,0,0,0,0,0,0,0,0,0,0,0,0,0,0,0,0,0,0,0,0,0,0,0,0,0,0,0,0,0,0,0,0,0,0,0,-7.7386,-7.7387,0,-7.7512,-7.7514,-7.7515,-7.7381,-7.7376,-7.7371,-7.7366,-7.7493,-7.7501,-7.7509,0,0,0,0,0,0,0,0,0,0,0,0,0,-7.7024,-7.7031,-7.7385,-7.7387,-7.7389,-7.7512,-7.7514,-7.7516,-7.7382,-7.7376,-7.7369,-7.7364,-7.749,-7.75,-7.7509,0,0,0,0,0,0,0,0,0,0,0,0,0,-7.7169,-7.7033,-7.7385,-7.7337,-7.7334,-7.7512,-7.7514,-7.7516,-7.7383,-7.7376,-7.7368,-7.7361,-7.7487,-7.7499,-7.7511,-7.7741,0,0,-7.7548,-7.7554,0,0,0,0,0,0,0,0,-7.7161,-7.7182,-7.7342,-7.7341,-7.7337,-7.7423,-7.7432,-7.7592,-7.7385,-7.7365,-7.7366,-7.7357,-7.7475,-7.7488,-7.7529,-7.7747,-7.7753,-7.7549,-7.7557,-7.7562,-7.7565,0,0,0,0,0,0,0,-7.7151,-7.7176,-7.7435,-7.7345,-7.7342,-7.7308,-7.732,-7.7462,-7.7462,-7.7366,-7.7356,-7.7373,-7.7473,-7.7517,-7.7531,-7.7755,-7.7549,-7.756,-7.7567,-7.7572,-7.8168,-7.8176,0,0,0,0,0,0,-7.7147,-7.7168,-7.7431,-7.7439,-7.7228,-7.7321,-7.7334,-7.7403,-7.746,-7.7461,-7.738,-7.7367,-7.75,-7.7517,-7.7535,-7.7809,-7.7562,-7.7573,-7.758,-7.8159,-7.817,-7.8179,0,0,0,0,0,0,-7.7139,-7.7171,-7.7426,-7.7301,-7.7331,-7.7335,-7.7414,-7.741,-7.7455,-7.7471,-7.7469,-7.7426,-7.7495,-7.7518,-7.7691,-7.7811,-7.7579,-7.759,-7.8149,-7.8162,-7.8174,-7.8359,0,0,0,0,0,0,-7.713,-7.717,-7.7258,-7.7304,-7.7338,-7.7583,-7.7421,-7.7418,-7.7477,-7.7461,-7.7514,-7.7515,-7.749,-7.7674,-7.7703,-7.7824,-7.76,-7.8139,-7.8155,-7.817,-7.8342,-7.8376,-7.8405,0,0,0,0,0,-7.7117,-7.7305,-7.7264,-7.7296,-7.745,-7.759,-7.7609,-7.7578,-7.7487,-7.7575,-7.7585,-7.7513,-7.7793,-7.7692,-7.7725,-7.7851,-7.8131,-7.815,-7.8169,-7.8328,-7.8369,-7.8405,0,0,0,0,0,0,-7.7272,-7.731,-7.7265,-7.7473,-7.7529,-7.7567,-7.7678,-7.7623,-7.7706,-7.7687,-7.7644,-7.7657,-7.7842,-7.7863,-7.775,-7.8077,-7.7947,-7.7973,-7.8056,-7.8096,-7.8127,-7.8119,-7.761,0,0,0,0,0,-7.733,-7.7442,-7.7468,-7.765,-7.768,-7.7675,-7.7734,-7.7706,-7.7762,-7.7785,-7.7807,-7.7863,-7.7963,-7.8031,-7.8124,-7.8344,-7.8353,-7.8446,-7.8478,-7.8504,-7.8528,-7.8645,-7.8687,-7.8241,-7.8241,-7.8241,0,0,-7.7452,-7.7486,-7.7559,-7.7682,-7.7722,-7.7837,-7.7696,-7.7824,-7.7909,-7.7803,-7.7969,-7.7988,-7.8047,-7.8246,-7.8334,-7.8269,-7.8652,-7.8528,-7.8549,-7.8558,-7.8669,-7.8711,-7.8749,-7.8254,-7.8252,-7.825,0,0,-7.7733,-7.7771,-7.7926,-7.7969,-7.8032,-7.8027,-7.8064,-7.811,-7.8119,-7.8285,-7.8208,-7.8307,-7.8481,-7.8527,-7.8573,-7.8871,-7.8808,-7.8902,-7.9069,-7.9184,-7.9219,-7.925,-7.9356,-7.9395,-7.8925,-7.8926,-7.8926,0,-7.7876,-7.8049,-7.8012,-7.8147,-7.8202,-7.8113,-7.8269,-7.8312,-7.8402,-7.8442,-7.8368,-7.8585,-7.8618,-7.8826,-7.8899,-7.8938,-7.8979,-7.8897,-7.9217,-7.9248,-7.9276,-7.9377,-7.9417,-7.8937,-7.8936,-7.8935,-7.8934,0,-7.8222,-7.8343,-7.846,-7.8551,-7.8619,-7.8764,-7.8748,-7.8821,-7.8786,-7.8789,-7.8958,-7.8995,-7.9094,-7.9141,-7.9107,-7.9344,-7.9302,-7.9224,-7.9092,-7.933,-7.9425,-7.9463,-7.8953,-7.8949,-7.8946,-7.8943,0,0,-7.8606,-7.8674,-7.8718,-7.8757,-7.882,-7.8912,-7.9051,-7.9149,-7.9213,-7.9278,-7.9394,-7.9542,-7.947,-7.9523,-7.9493,-7.9594,-7.9828,-7.9503,-7.9504,-7.9563,-8.0091,-8.015,-8.0196,-7.9786,-7.9793,-7.9799,-8.0086,0,-7.8889,-7.9134,-7.9104,-7.9337,-7.9448,-7.9364,-7.9485,-7.9536,-7.9542,-7.9635,-7.964,-7.9747,-7.9643,-7.9674,-7.977,-7.978,-7.9934,-7.9758,-7.9893,-7.9898,-7.9882,-8.0245,-8.0309,-8.0578,-8.0122,-8.0129,-8.0133,0,-7.9253,-7.9332,-7.9577,-7.9622,-7.9667,-7.9777,-7.9864,-7.9955,-8.001,-8.0007,-8.0066,-8.0018,-8.0157,-8.0022,-8.0212,-8.0093,-8.0146,-8.0159,-8.0168,-8.0181,-8.0031,-8.0268,-8.0663,-8.0704,-8.0191,-8.0186,-8.0182,0,-7.951,-7.9677,-7.9845,-7.9881,-7.9938,-8.0017,-8.0044,-8.0092,-8.0152,-8.0228,-8.0266,-8.0357,-8.0407,-8.0477,-8.0454,-8.0358,-8.065,-8.0513,-8.065,-8.0651,-8.0717,-8.0713,-8.1127,-8.0749,-8.0749,-8.0748,-8.0747,0,-7.983,-7.9984,-7.9961,-8.0065,-8.0233,-8.0197,-8.0364,-8.038,-8.0423,-8.0528,-8.0459,-8.0558,-8.0522,-8.0618,-8.0601,-8.0761,-8.0784,-8.0784,-8.0778,-8.0792,-8.0792,-8.0827,-8.0808,-8.0759,-8.0756,-8.0754,-8.0752,0,-8.0146,-8.0137,-8.0315,-8.0354,-8.0367,-8.049,-8.0522,-8.0619,-8.0618,-8.0751,-8.078,-8.0779,-8.0889,-8.0873,-8.0995,-8.0983,-8.1184,-8.1154,-8.1166,-8.116,-8.1298,-8.1286,-8.175,-8.1809,-8.1392,-8.1396,-8.14,0,-8.0352,-8.0468,-8.052,-8.0585,-8.0618,-8.0725,-8.0786,-8.0754,-8.0821,-8.0892,-8.098,-8.1084,-8.1166,-8.1345,-8.1354,-8.1447,-8.142,-8.1576,-8.1433,-8.1443,-8.1423,-8.1417,-8.1429,-8.1605,-8.1609,-8.1613,-8.1616,0,-8.0719,-8.0708,-8.0801,-8.0892,-8.0968,-8.1038,-8.1101,-8.1158,-8.1131,-8.121,-8.1322,-8.1385,-8.151,-8.1614,-8.1701,-8.1726,-8.1668,-8.1661,-8.1698,-8.1713,-8.1716,-8.1717,-8.1244,-8.1651,-8.1647,-8.1645,-8.1643,-8.1642,-8.0987,-8.1086,-8.1138,-8.1243,-8.1287,-8.1347,-8.144,-8.1451,-8.1545,-8.1645,-8.1619,-8.1747,-8.1797,-8.1908,-8.1943,-8.2041,-8.1983,-8.2036,-8.205,-8.2064,-8.2081,-8.17,-8.2056,-8.2055,-8.2054,-8.2053,-8.2052,0,-8.1351,-8.138,-8.1477,-8.1567,-8.165,-8.1587,-8.1653,-8.1726,-8.184,-8.1892,-8.1974,-8.2103,-8.2203,-8.222,-8.2315,-8.239,-8.2365,-8.2416,-8.2411,-8.2418,-8.2127,-8.2086,-8.2434,-8.2434,-8.2434,-8.2434,-8.2434,-8.2434,-8.155,-8.1715,-8.1711,-8.1896,-8.1923,-8.2048,-8.2092,-8.2146,-8.2188,-8.2336,-8.2419,-8.243,-8.2468,-8.2565,-8.2653,-8.2656,-8.2694,-8.2756,-8.2748,-8.2476,-8.2438,-8.2402,-8.2363,-8.2764,-8.2765,-8.3031,-8.3033,-8.3035]}]]